Regional Weather Roundup
Issued by NWS Cleveland, OH

Home | Current Version | Previous Version | Text Only | Print | Product List | Glossary Off
Versions: 1 2 3 4 5 6 7 8 9 10 11 12 13 14 15 16 17 18 19 20 21 22 23 24 25 26 27 28 29 30 31 32 33 34 35 36 37 38 39 40 41 42 43 44 45 46 47 48 49 50

000
ASUS41 KCLE 271802
RWRCLE
OHIO REGIONAL WEATHER ROUNDUP
NATIONAL WEATHER SERVICE CLEVELAND, OH
200 PM EDT TUE JUN 27 2017

NOTE: "FAIR" INDICATES FEW OR NO CLOUDS BELOW 12,000 FEET WITH NO
SIGNIFICANT WEATHER AND/OR OBSTRUCTIONS TO VISIBILITY.

OHZ001>008-015>018-024>027-034-035-043-044-271900-
   NORTHWEST OHIO

CITY           SKY/WX    TMP DP  RH WIND       PRES   REMARKS
DEFIANCE       PTSUNNY   67  44  43 W7        30.11F
FINDLAY        MOSUNNY   69  43  38 VRB7      30.11F
TOLEDO EXPRESS PTSUNNY   70  43  37 W9        30.09F
TOLEDO EXEC    MOSUNNY   70  43  37 W12       30.10F
LIMA           SUNNY     67  43  41 NW3       30.13S
$$

OHZ009>014-019>023-028>033-038-089-271900-
   NORTHEAST OHIO

CITY           SKY/WX    TMP DP  RH WIND       PRES   REMARKS
CLE-HOPKINS    MOSUNNY   70  48  45 NW15G23   30.11S
CLE-LAKEFRONT  MOSUNNY   67  51  56 W15G22    30.08S
CUY CO. ARPT   NOT AVBL
LORAIN-ELYRIA  SUNNY     66  44  45 NW12G20   30.11S
ASHTABULA      PTSUNNY   62  51  67 NW12      30.08R
AKRON-CANTON   PTSUNNY   69  47  45 NW9       30.09S
WOOSTER        PTSUNNY   66  45  46 NW9       30.11S
MANSFIELD      MOSUNNY   66  45  46 W9        30.12S
YOUNGSTOWN     CLOUDY    63  49  60 W12       30.08R
$$

OHZ042-051>053-060>062-070>072-077>081-271900-
  SOUTHWEST OHIO

CITY           SKY/WX    TMP DP  RH WIND       PRES   REMARKS
CINC-COVINGTON PTSUNNY   72  51  47 NW10      30.15S
CINC-LUNKEN    PTSUNNY   72  51  47 VRB7      30.15S
HAMILTON       MOSUNNY   71  51  49 CALM      30.15S
DAYTON         MOSUNNY   69  47  45 N9        30.15S
WRIGHT-PAT AFB MOSUNNY   69  49  48 NW8       30.13F
DAYTON GENERAL MOSUNNY   69  49  48 N10       30.14S
WILMINGTON     PTSUNNY   69  50  50 NW8G17    30.14S
$$

OHZ036-037-039>041-045>050-054>059-063>069-073>076-082>088-271900-
  CENTRAL AND SOUTHEAST OHIO

CITY           SKY/WX    TMP DP  RH WIND       PRES   REMARKS
COLUMBUS       MOSUNNY   70  51  51 NW5       30.11F
OSU AIRPORT    PTSUNNY   69  50  50 VRB3      30.12S
BOLTON FIELD   PTSUNNY   68  52  56 NW10      30.03F
RICKENBACK AFB MOSUNNY   69  48  48 W7        30.12F
NEWARK         MOSUNNY   71  45  39 W13G18    30.11F
MARION         SUNNY     68  45  43 NW12G18   30.12F
LANCASTER      MOSUNNY   68  50  52 VRB7      30.13S
ZANESVILLE     PTSUNNY   68  46  45 NW12      30.11F
NEW PHILLY     NOT AVBL
$$




USA.gov is the U.S. government's official web portal to all federal, state and local government web resources and services.